Location: Unspecified
(49.2170°N, 0.0000°E)
Time: 17:34:33
(UTC+00:00)

A-11 Canister half - Pass Details

Date: 28 January 2021
Orbit: 1516 x 1684 km, 47.2° (Epoch: 05 March)

Event Time Altitude Azimuth Distance (km) Brightness Sun altitude
Rises 21:31:20 0° 261° (W) 4,737 12.1 -44.9°
Reaches altitude 10° 21:34:25 10° 260° (W) 3,735 11.4 -45.4°
Enters shadow 21:39:24 36° 256° (WSW) 2,240 9.9 -46.1°
